View from above orbital plane
|
View from above satellite
|
Ground track
|
The orbit data is extracted from the following two-line orbital elements,
1 23560U 95021A 21015.78936328 .00000770 00000-0 35958-4 0 9996
2 23560 98.5531 204.6520 0003816 152.1888 207.9551 15.23600921374472
Epoch (UTC): | 15 January 2021 18:56:40 |
Eccentricity: | 0.0003816 |
inclination: | 98.5531° |
perigee height: | 492 km |
apogee height: | 497 km |
right ascension of ascending node: | 204.6520° |
argument of perigee: | 152.1888° |
revolutions per day: | 15.23600921 |
mean anomaly at epoch: | 207.9551° |
orbit number at epoch: | 37447 |
The dashed part of the orbit path shows where the satellite is in the earth's shadow,
|
|